When you browse on this site, cookies collect data to enhance your experience and personalize the content and advertising you see.
Visit our Privacy Policy to learn more. By continuing to use the site, you agree to this use of cookies and data.
  • In Hungary
  • List of Countries
  • For 7 days
  • Water Temperature
  • Satellite Maps
  • Weather Map
  • News
  • Weather Widgets
  • user-avatar
    Login

    Hourly Weather Zastawie

    Today, 22 May, Wednesday

    Time Temperature Precipitation Wind Pressure Humidity
    00:00 +13°C° 0.6 mm 5 mps 735 mmHg 91%
    01:00 +13°C° 0.6 mm 4 mps 735 mmHg 92%
    02:00 +13°C° 1 mm 4 mps 735 mmHg 92%
    03:00 +13°C° 1 mm 4 mps 735 mmHg 93%
    04:00 +13°C° 1 mm 4 mps 735 mmHg 93%
    05:00 +13°C° 0.8 mm 4 mps 735 mmHg 93%
    06:00 +13°C° 0.8 mm 4 mps 735 mmHg 92%
    07:00 +14°C° 0.8 mm 4 mps 735 mmHg 92%
    08:00 +14°C° 0.7 mm 3 mps 736 mmHg 92%
    09:00 +14°C° 0.7 mm 3 mps 736 mmHg 91%
    10:00 +14°C° 0.7 mm 3 mps 736 mmHg 91%
    11:00 +16°C° 0.7 mm 3 mps 736 mmHg 90%
    12:00 +16°C° 0.7 mm 3 mps 736 mmHg 88%
    13:00 +17°C° 0.7 mm 3 mps 736 mmHg 87%
    14:00 +17°C° 0.7 mm 3 mps 736 mmHg 85%
    15:00 +17°C° 0.7 mm 4 mps 736 mmHg 83%
    16:00 +18°C° 0.7 mm 4 mps 736 mmHg 82%
    17:00 +17°C° 1.3 mm 4 mps 736 mmHg 84%
    18:00 +15°C° 1.3 mm 4 mps 737 mmHg 87%
    19:00 +14°C° 1.3 mm 5 mps 737 mmHg 89%
    20:00 +14°C° 1.2 mm 5 mps 737 mmHg 91%
    21:00 +14°C° 1.2 mm 5 mps 738 mmHg 93%
    22:00 +14°C° 1.2 mm 6 mps 738 mmHg 95%
    23:00 +14°C° 0.6 mm 5 mps 738 mmHg 95%

    Tomorrow, 23 May, Thursday

    Time Temperature Precipitation Wind Pressure Humidity
    00:00 +14°C° 0.6 mm 5 mps 739 mmHg 95%
    01:00 +14°C° 0.6 mm 5 mps 739 mmHg 96%
    02:00 +14°C° 0.7 mm 5 mps 739 mmHg 95%
    03:00 +14°C° 0.7 mm 5 mps 739 mmHg 95%
    04:00 +14°C° 0.7 mm 5 mps 739 mmHg 95%
    05:00 +14°C° 0.9 mm 4 mps 740 mmHg 95%
    06:00 +14°C° 0.9 mm 4 mps 740 mmHg 94%
    07:00 +14°C° 0.9 mm 4 mps 740 mmHg 94%
    08:00 +14°C° 1.2 mm 4 mps 741 mmHg 94%
    09:00 +14°C° 1.2 mm 5 mps 741 mmHg 93%
    10:00 +14°C° 1.2 mm 5 mps 741 mmHg 93%
    11:00 +14°C° 0.6 mm 5 mps 742 mmHg 93%
    12:00 +14°C° 0.6 mm 6 mps 742 mmHg 92%
    13:00 +14°C° 0.6 mm 6 mps 742 mmHg 92%
    14:00 +13°C° 0.3 mm 6 mps 742 mmHg 92%
    15:00 +13°C° 0.3 mm 6 mps 742 mmHg 92%
    16:00 +11°C° 0.3 mm 6 mps 742 mmHg 92%
    17:00 +11°C° 0.4 mm 6 mps 742 mmHg 93%
    18:00 +11°C° 0.4 mm 6 mps 743 mmHg 93%
    19:00 +12°C° 0.4 mm 5 mps 743 mmHg 93%
    20:00 +12°C° 0.2 mm 5 mps 743 mmHg 92%
    21:00 +12°C° 0.2 mm 5 mps 743 mmHg 92%
    22:00 +11°C° 0.2 mm 4 mps 743 mmHg 91%
    23:00 +11°C° 0.1 mm 4 mps 743 mmHg 91%

    Day after tomorrow, 24 May, Friday

    Time Temperature Precipitation Wind Pressure Humidity
    00:00 +11°C° 0.1 mm 4 mps 743 mmHg 91%
    01:00 +11°C° 0.1 mm 4 mps 743 mmHg 91%
    02:00 +11°C° 0.2 mm 3 mps 744 mmHg 90%
    03:00 +11°C° 0.2 mm 3 mps 744 mmHg 90%
    04:00 +11°C° 0.2 mm 3 mps 744 mmHg 90%
    05:00 +11°C° 0 mm 3 mps 744 mmHg 87%
    06:00 +11°C° 0 mm 3 mps 744 mmHg 84%
    07:00 +11°C° 0 mm 3 mps 744 mmHg 81%
    08:00 +12°C° 0 mm 3 mps 744 mmHg 75%
    09:00 +13°C° 0 mm 3 mps 744 mmHg 68%
    10:00 +16°C° 0 mm 3 mps 744 mmHg 62%
    11:00 +17°C° 0 mm 3 mps 744 mmHg 59%
    12:00 +18°C° 0 mm 3 mps 744 mmHg 57%
    13:00 +19°C° 0 mm 3 mps 743 mmHg 55%
    14:00 +19°C° 0 mm 3 mps 743 mmHg 56%
    15:00 +19°C° 0 mm 3 mps 743 mmHg 58%
    16:00 +19°C° 0 mm 3 mps 742 mmHg 59%
    17:00 +18°C° 0 mm 3 mps 742 mmHg 65%
    18:00 +16°C° 0 mm 2 mps 742 mmHg 71%
    19:00 +15°C° 0 mm 1 mps 742 mmHg 77%
    20:00 +14°C° 0 mm 1 mps 742 mmHg 81%
    21:00 +13°C° 0 mm 1 mps 742 mmHg 84%
    22:00 +12°C° 0 mm 1 mps 743 mmHg 87%
    23:00 +12°C° 0 mm 1 mps 743 mmHg 87%

    25 May, Saturday

    Time Temperature Precipitation Wind Pressure Humidity
    00:00 +10°C° 0 mm 2 mps 742 mmHg 88%
    01:00 +10°C° 0 mm 2 mps 742 mmHg 88%
    02:00 +10°C° 0 mm 2 mps 742 mmHg 88%
    03:00 +10°C° 0 mm 2 mps 742 mmHg 88%
    04:00 +9°C° 0 mm 2 mps 742 mmHg 87%
    05:00 +12°C° 0 mm 2 mps 742 mmHg 83%
    06:00 +14°C° 0 mm 2 mps 742 mmHg 79%
    07:00 +16°C° 0 mm 2 mps 742 mmHg 75%
    08:00 +17°C° 0.1 mm 3 mps 742 mmHg 72%
    09:00 +19°C° 0.1 mm 3 mps 742 mmHg 69%
    10:00 +20°C° 0.1 mm 4 mps 742 mmHg 66%
    11:00 +20°C° 0.8 mm 4 mps 742 mmHg 67%
    12:00 +21°C° 0.8 mm 4 mps 742 mmHg 68%
    13:00 +21°C° 0.8 mm 4 mps 742 mmHg 68%
    14:00 +21°C° 0.5 mm 4 mps 741 mmHg 69%
    15:00 +21°C° 0.5 mm 4 mps 741 mmHg 70%
    16:00 +21°C° 0.5 mm 4 mps 741 mmHg 71%
    17:00 +19°C° 0.2 mm 3 mps 741 mmHg 75%
    18:00 +18°C° 0.2 mm 2 mps 742 mmHg 78%
    19:00 +16°C° 0.2 mm 1 mps 742 mmHg 81%
    20:00 +15°C° 0 mm 1 mps 742 mmHg 84%
    21:00 +14°C° 0 mm 1 mps 742 mmHg 86%
    22:00 +13°C° 0 mm 1 mps 743 mmHg 89%
    23:00 +13°C° 0 mm 1 mps 743 mmHg 89%

    26 May, Sunday

    Time Temperature Precipitation Wind Pressure Humidity
    00:00 +13°C° 0 mm 1 mps 743 mmHg 89%
    01:00 +13°C° 0 mm 1 mps 743 mmHg 89%
    02:00 +12°C° 0 mm 1 mps 743 mmHg 90%
    03:00 +12°C° 0 mm 1 mps 742 mmHg 91%
    04:00 +10°C° 0 mm 2 mps 742 mmHg 92%
    05:00 +12°C° 0 mm 2 mps 742 mmHg 89%
    06:00 +14°C° 0 mm 2 mps 742 mmHg 85%
    07:00 +14°C° 0 mm 3 mps 742 mmHg 82%
    08:00 +15°C° 0 mm 4 mps 742 mmHg 76%
    09:00 +17°C° 0 mm 4 mps 742 mmHg 70%
    10:00 +17°C° 0 mm 5 mps 742 mmHg 64%
    11:00 +19°C° 0 mm 6 mps 741 mmHg 61%
    12:00 +19°C° 0 mm 6 mps 741 mmHg 58%
    13:00 +20°C° 0 mm 6 mps 741 mmHg 55%
    14:00 +20°C° 0 mm 6 mps 741 mmHg 57%
    15:00 +20°C° 0 mm 5 mps 741 mmHg 59%
    16:00 +20°C° 0 mm 5 mps 741 mmHg 61%
    17:00 +18°C° 0 mm 4 mps 741 mmHg 66%
    18:00 +17°C° 0 mm 3 mps 741 mmHg 71%
    19:00 +15°C° 0 mm 2 mps 741 mmHg 77%
    20:00 +15°C° 0 mm 2 mps 741 mmHg 77%
    21:00 +14°C° 0 mm 2 mps 742 mmHg 78%
    22:00 +14°C° 0 mm 2 mps 742 mmHg 79%
    23:00 +13°C° 0 mm 2 mps 742 mmHg 81%

    27 May, Monday

    Time Temperature Precipitation Wind Pressure Humidity
    00:00 +12°C° 0 mm 3 mps 742 mmHg 84%
    01:00 +11°C° 0 mm 3 mps 742 mmHg 87%
    02:00 +11°C° 0 mm 3 mps 742 mmHg 87%
    03:00 +11°C° 0 mm 3 mps 742 mmHg 88%
    04:00 +11°C° 0 mm 3 mps 742 mmHg 88%
    05:00 +12°C° 0 mm 3 mps 742 mmHg 84%
    06:00 +14°C° 0 mm 3 mps 743 mmHg 81%
    07:00 +15°C° 0 mm 4 mps 743 mmHg 77%
    08:00 +18°C° 0 mm 4 mps 743 mmHg 73%
    09:00 +19°C° 0 mm 4 mps 743 mmHg 70%
    10:00 +21°C° 0 mm 4 mps 743 mmHg 66%
    11:00 +21°C° 0.2 mm 4 mps 742 mmHg 65%
    12:00 +22°C° 0.2 mm 4 mps 742 mmHg 64%
    13:00 +23°C° 0.2 mm 4 mps 741 mmHg 63%
    14:00 +23°C° 0.5 mm 4 mps 741 mmHg 66%
    15:00 +24°C° 0.5 mm 3 mps 741 mmHg 69%
    16:00 +24°C° 0.5 mm 3 mps 741 mmHg 73%
    17:00 +21°C° 0.4 mm 3 mps 741 mmHg 76%
    18:00 +20°C° 0.4 mm 2 mps 741 mmHg 79%
    19:00 +19°C° 0.4 mm 2 mps 741 mmHg 82%
    20:00 +18°C° 0.3 mm 2 mps 741 mmHg 84%
    21:00 +17°C° 0.3 mm 2 mps 742 mmHg 86%
    22:00 +16°C° 0.3 mm 2 mps 742 mmHg 89%
    23:00 +15°C° 0 mm 2 mps 742 mmHg 90%
    Show more